Location: Unspecified
(40.7945°N, 0.0000°E)
Time: 20:09:27
(UTC+00:00)

Explorer 7 - Pass Details

Date: 26 June 2021
Orbit: 484 x 676 km, 50.3° (Epoch: 28 July)

Event Time Altitude Azimuth Distance (km) Brightness Sun altitude
Rises 00:20:18 0° 303° (WNW) 3,003 11.0 -25.7°
Reaches altitude 10° 00:22:42 10° 305° (NW) 2,070 10.1 -25.7°
Enters shadow 00:27:10 75° 339° (NNW) 662 7.2 -25.6°
